| time (UTC) | temp C | wind direction | speed KPH | gust KPH | rain 1hr cm | rain 24hr cm | rain mn cm | humidity % | barometer mb |
| 20260504141323 | 13 | 205 | 1.6 | 4.8 | 0.00 | 0.99 | 0.00 | 91 | 1016.9 |
| 20260504081112 | 16 | 276 | 0.0 | 0.0 | 0.00 | 0.97 | 0.97 | 91 | 1015.0 |
| 20260504045356 | 17 | 38 | 0.0 | 1.6 | 0.00 | 0.97 | 0.97 | 92 | 1014.8 |
| 20260504043856 | 17 | 46 | 0.0 | 6.4 | 0.00 | 0.97 | 0.97 | 92 | 1014.7 |
| 20260504042353 | 17 | 40 | 0.0 | 3.2 | 0.00 | 0.97 | 0.97 | 92 | 1014.6 |
| 20260504040848 | 17 | 34 | 0.0 | 6.4 | 0.03 | 0.97 | 0.97 | 92 | 1015.0 |
| 20260504035345 | 17 | 53 | 1.6 | 6.4 | 0.05 | 0.97 | 0.97 | 92 | 1015.0 |
| 20260504033843 | 17 | 48 | 1.6 | 6.4 | 0.05 | 0.97 | 0.97 | 92 | 1015.0 |
| 20260504032346 | 17 | 45 | 0.0 | 3.2 | 0.05 | 0.97 | 0.97 | 92 | 1015.4 |
| 20260504030845 | 17 | 43 | 1.6 | 6.4 | 0.05 | 0.94 | 0.94 | 92 | 1015.6 |
| 20260504025337 | 17 | 0 | 0.0 | 8.0 | 0.03 | 0.91 | 0.91 | 92 | 1015.9 |
| 20260504023833 | 17 | 49 | 0.0 | 4.8 | 0.00 | 0.89 | 0.89 | 92 | 1016.1 |
| 20260504022334 | 17 | 30 | 1.6 | 6.4 | 0.03 | 0.89 | 0.89 | 93 | 1016.2 |
| 20260504020816 | 17 | 57 | 0.0 | 6.4 | 0.03 | 0.89 | 0.89 | 93 | 1016.5 |
| 20260504015317 | 17 | 60 | 0.0 | 6.4 | 0.05 | 0.89 | 0.89 | 92 | 1016.6 |
| 20260504013814 | 16 | 36 | 1.6 | 8.0 | 0.08 | 0.89 | 0.89 | 93 | 1016.6 |
| 20260504012319 | 16 | 113 | 0.0 | 0.0 | 0.10 | 0.89 | 0.89 | 92 | 1017.0 |
| 20260504010817 | 16 | 111 | 0.0 | 0.0 | 0.15 | 0.89 | 0.89 | 92 | 1017.3 |
| 20260504005248 | 16 | 110 | 0.0 | 0.0 | 0.20 | 0.86 | 0.86 | 92 | 1017.3 |
| 20260504003755 | 16 | 109 | 0.0 | 0.0 | 0.25 | 0.81 | 0.81 | 91 | 1017.4 |
| 20260504002247 | 15 | 108 | 0.0 | 4.8 | 0.36 | 0.79 | 0.79 | 90 | 1017.4 |
| 20260504000740 | 15 | 109 | 0.0 | 3.2 | 0.48 | 0.71 | 0.71 | 90 | 1017.7 |
| 20260503235240 | 15 | 109 | 0.0 | 3.2 | 0.56 | 0.66 | 0.66 | 90 | 1017.6 |
| 20260503233735 | 15 | 108 | 0.0 | 4.8 | 0.51 | 0.56 | 0.58 | 89 | 1017.7 |
| 20260503232213 | 15 | 109 | 1.6 | 4.8 | 0.38 | 0.41 | 0.43 | 89 | 1017.9 |
| 20260503230716 | 15 | 120 | 3.2 | 6.4 | 0.23 | 0.23 | 0.23 | 89 | 1018.0 |
| 20260503225201 | 15 | 124 | 1.6 | 6.4 | 0.10 | 0.10 | 0.10 | 89 | 1017.8 |
| 20260503223648 | 15 | 0 | 1.6 | 4.8 | 0.05 | 0.05 | 0.05 | 88 | 1017.5 |
| 20260503222141 | 15 | 84 | 0.0 | 4.8 | 0.03 | 0.03 | 0.03 | 88 | 1017.4 |
| 20260503220636 | 15 | 0 | 1.6 | 3.2 | 0.03 | 0.03 | 0.03 | 88 | 1017.1 |
| 20260503215142 | 15 | 0 | 0.0 | 3.2 | 0.00 | 0.00 | 0.00 | 88 | 1017.1 |
| 20260503213618 | 14 | 0 | 0.0 | 1.6 | 0.00 | 0.00 | 0.00 | 88 | 1016.9 |
| 20260503212120 | 14 | 0 | 0.0 | 3.2 | 0.00 | 0.00 | 0.00 | 88 | 1016.7 |
| 20260503210612 | 14 | 0 | 3.2 | 6.4 | 0.00 | 0.00 | 0.00 | 88 | 1016.3 |
| 20260503205117 | 14 | 0 | 1.6 | 4.8 | 0.00 | 0.00 | 0.00 | 88 | 1016.3 |
| 20260503203612 | 14 | 0 | 0.0 | 3.2 | 0.00 | 0.00 | 0.00 | 88 | 1016.3 |
| 20260503202104 | 14 | 0 | 1.6 | 3.2 | 0.00 | 0.00 | 0.00 | 88 | 1016.2 |
| 20260503200603 | 14 | 140 | 1.6 | 4.8 | 0.00 | 0.00 | 0.00 | 88 | 1016.0 |
| 20260503195052 | 13 | 0 | 3.2 | 6.4 | 0.00 | 0.00 | 0.00 | 88 | 1015.8 |
| 20260503193554 | 13 | 0 | 1.6 | 6.4 | 0.00 | 0.00 | 0.00 | 88 | 1015.9 |
| 20260503192049 | 13 | 0 | 3.2 | 6.4 | 0.00 | 0.00 | 0.00 | 88 | 1016.0 |
| 20260503190550 | 13 | 0 | 1.6 | 4.8 | 0.00 | 0.00 | 0.00 | 88 | 1015.9 |
| 20260503185035 | 13 | 0 | 4.8 | 8.0 | 0.00 | 0.00 | 0.00 | 88 | 1016.0 |
| 20260503183524 | 13 | 140 | 3.2 | 6.4 | 0.00 | 0.00 | 0.00 | 88 | 1016.0 |
| 20260503182023 | 13 | 0 | 3.2 | 6.4 | 0.00 | 0.00 | 0.00 | 88 | 1016.1 |
| 20260503180521 | 13 | 0 | 3.2 | 8.0 | 0.00 | 0.00 | 0.00 | 88 | 1016.1 |
| 20260503175022 | 13 | 0 | 3.2 | 6.4 | 0.00 | 0.00 | 0.00 | 88 | 1016.0 |
| 20260503173516 | 13 | 0 | 1.6 | 6.4 | 0.00 | 0.00 | 0.00 | 88 | 1016.0 |
| 20260503172017 | 13 | 0 | 1.6 | 4.8 | 0.00 | 0.00 | 0.00 | 88 | 1016.1 |
| 20260503170536 | 13 | 0 | 3.2 | 8.0 | 0.00 | 0.00 | 0.00 | 88 | 1016.4 |
| 20260503150456 | 13 | 0 | 1.6 | 4.8 | 0.00 | 0.00 | 0.00 | 87 | 1017.3 |